Presure
121 121 124 113 132 139 142 125 138 125 131 134 144 125 128 126 124 119 100 117 129 124 128 133 144 125 132 121 115 116 126 110 117 107 124 129 124 110 111 107 116 144 118 119 132
119 114 116 101 130 97 140 142 156 129 128 127 109 117 130 132 128 113 131 121 124 126 126 129 136 109 112 135 119 115 123 114 111 114 115 131 109 148 114 120 148 131 137 112 147
124 112 167 103 130 135 135 125 134 134 143 123 140 138 132 136 134 125 115 133 119 125 138 119 126 117 161 110 118 109 115 124 121 108 115 122 133 128 125 116 123 133 119 105 136
116 140 198 94 102 119 126 112 124 115 115 151 136 107 140 112 144 130 135 124 124 141 114 135 119 131 138 104 113 120 114 135 117 106 104 122 135 137 124 126 105 150 111 131 122
138 137 126 116 115 116 125 119 138 162 123 106 137 153 107 127 130 134 135 110 137 136 138 130 112 121 123 116 100 123 115 120 119 116 115 129 123 128 143 118 136 140 142 103 120
173 137 138 131 114 118 121 145 124 138 119 99 132 131 149 130 111 122 127 135 111 112 119 154 93 115 109 121 120 96 112 121 105 105 116 143 156 147 131 123 107 144 122 152 121
136 144 143 207 188 124 121 143 166 111 113 123 116 125 127 109 138 148 110 116 134 142 115 116 150 104 120 135 122 118 122 109 124 128 128 145 145 133 112 140 145 130 132 117 135
149 214 153 188 196 166 127 144 169 123 136 112 119 119 102 123 158 105 142 100 132 132 135 139 106 138 104 112 137 139 145 147 148 141 144 120 138 143 133 124 126 129 129 129 103
171 166 198 147 148 172 140 203 160 149 138 125 121 115 116 135 151 123 123 130 106 117 129 128 136 123 121 133 146 128 116 113 131 139 121 138 119 130 134 121 118 122 173 132 171
183 154 206 214 205 196 143 162 150 122 193 191 127 174 176 126 126 113 132 131 152 108 149 108 128 99 140 132 127 96 141 129 119 133 126 123 119 119 122 114 118 164 120 122 130
208 197 202 205 204 203 192 201 166 200 150 198 155 116 193 109 144 125 132 121 121 138 109 160 128 107 104 137 142 146 119 104 137 117 131 96 139 128 122 153 142 109 126 132 119
223 221 204 196 213 206 199 191 208 210 171 135 169 208 152 198 176 142 122 161 164 134 141 139 136 115 128 98 118 144 111 127 144 141 143 126 135 117 104 104 125 95 135 120 137
279 260 245 200 209 210 209 203 207 181 162 148 139 186 178 138 172 114 135 115 129 118 169 134 100 106 135 149 152 109 115 141 101 154 114 147 109 133 117 120 137 139 110 119 119
264 290 298 251 226 195 201 201 205 218 196 219 209 191 207 186 141 179 123 194 169 179 121 120 126 145 74 117 138 131 106 122 136 150 155 164 149 117 80 128 143 144 147 81 134
228 248 260 282 296 244 215 213 216 206 208 201 202 196 189 193 93 183 150 144 132 126 155 81 81 145 160 130 116 126 122 105 141 137 146 142 174 132 130 75 94 123 100 77 114
295 225 233 249 259 273 290 248 251 217 218 217 206 199 197 167 192 103 183 178 199 84 95 156 110 139 128 161 164 206 140 150 133 147 153 174 173 189 195 83 83 123 115 67 148
279 279 301 290 240 242 253 266 282 281 258 250 220 214 206 198 197 162 114 175 81 135 225 159 104 168 144 195 148 155 144 142 145 146 131 149 147 93 84 110 148 142 70 141 107
275 281 281 304 306 335 234 235 254 271 293 311 246 249 211 212 202 206 117 198 131 199 109 75 136 129 135 128 179 151 121 205 156 155 132 153 149 113 106 141 150 68 136 107 123
272 276 277 285 299 356 344 351 254 245 255 273 290 294 238 233 224 237 211 197 141 126 218 196 165 175 197 125 139 145 143 172 146 148 164 141 122 124 141 117 135 131 111 120 154
271 278 282 272 291 331 328 342 357 290 248 244 256 278 286 288 249 245 237 235 217 222 59 88 127 81 183 219 215 216 135 142 154 151 152 172 155 135 114 127 145 138 135 144 110
271 265 276 281 299 320 399 343 347 341 330 255 248 210 152 271 226 291 266 233 239 227 228 210 152 216 209 122 204 208 171 195 153 181 162 123 107 136 137 145 120 107 101 143 152
265 272 271 283 295 368 384 394 312 311 321 332 274 259 245 234 181 211 282 294 231 220 230 232 217 217 218 210 212 145 212 176 220 210 201 144 202 214 199 118 93 185 133 152 170
265 273 275 289 304 373 140 369 365 356 301 311 329 322 251 214 241 198 266 272 280 248 250 193 228 224 215 219 224 207 200 169 211 210 213 205 137 85 81 120 145 110 90 174 177
271 274 288 292 339 331 330 63 255 340 339 342 295 307 319 288 258 245 236 241 258 275 245 228 154 231 231 225 171 162 205 208 208 163 167 105 99 79 85 118 170 142 159 156 181
276 293 293 332 328 310 308 309 243 333 316 326 372 281 289 94 316 268 247 233 228 219 260 277 237 124 228 223 146 213 207 209 205 212 116 96 146 120 201 153 82 156 175 155 189
277 292 313 316 380 384 390 344 325 311 327 309 312 259 80 339 292 299 315 253 162 226 234 251 262 238 225 212 214 199 195 209 210 196 216 159 96 190 111 177 114 175 169 183 184
292 318 320 378 363 357 385 155 383 316 301 321 311 69 349 184 192 229 88 315 267 230 225 120 246 272 95 244 193 113 217 179 109 121 196 223 167 80 96 197 190 188 191 184 184
Wind_Speed
75 62 64 62 68 73 73 59 67 60 63 63 65 54 57 52 47 43 34 39 44 41 38 40 45 40 40 34 35 35 36 31 35 24 35 35 36 22 24 15 28 54 30 38 53
69 59 62 60 68 53 74 73 76 63 62 58 46 50 59 60 52 40 54 44 45 43 41 40 43 31 31 42 37 34 39 36 30 34 32 38 28 50 29 38 53 50 50 31 51
78 70 92 63 73 75 73 59 69 68 75 59 70 68 63 64 60 53 43 54 43 44 49 40 42 38 46 34 39 38 39 41 37 31 35 37 43 41 43 32 43 52 38 17 48
69 89 98 55 64 61 65 59 64 60 56 77 72 52 69 48 63 56 58 50 50 52 40 48 41 44 48 30 40 43 42 45 41 31 26 41 44 44 44 36 15 53 26 39 42
88 93 78 74 65 70 66 62 79 85 63 60 70 76 54 61 61 61 59 43 59 57 51 47 40 38 43 39 34 43 42 43 39 46 43 46 42 44 48 40 47 53 49 19 45
91 90 90 88 74 70 66 91 67 82 70 49 69 68 76 69 53 57 56 59 46 43 45 59 36 42 41 43 43 32 39 42 42 44 45 52 47 43 47 46 35 53 44 50 41
97 98 95 104 104 77 76 92 96 64 65 62 62 62 65 59 71 74 54 53 60 65 44 44 57 40 43 50 47 44 46 37 44 46 47 52 47 42 42 50 54 50 53 36 47
101 99 98 105 106 98 82 94 101 78 85 73 64 57 64 68 85 55 74 44 60 59 56 57 42 55 41 43 54 58 59 51 47 50 49 49 49 52 43 50 53 50 51 52 24
98 89 102 106 86 100 95 108 99 91 90 76 65 64 68 82 87 60 66 67 49 53 53 55 53 50 52 57 60 47 40 39 44 49 49 43 50 57 49 49 44 50 56 50 49
108 88 106 104 109 109 102 100 97 78 113 106 67 94 93 80 72 65 72 68 79 51 67 50 50 45 64 60 53 35 50 48 45 48 47 49 47 56 48 45 45 63 38 36 51
117 110 114 111 112 112 115 116 104 116 97 113 99 66 101 78 94 71 69 67 61 63 56 75 57 65 49 59 61 59 45 50 55 44 48 44 48 55 57 62 60 38 54 56 48
128 123 119 112 119 117 119 121 121 121 98 83 106 110 99 102 98 90 73 90 81 71 66 57 61 67 58 39 51 60 53 55 65 47 50 46 50 60 37 38 51 22 55 47 58
104 118 129 117 121 127 128 128 123 107 96 84 89 109 107 83 105 72 81 67 72 68 77 57 70 53 64 75 72 53 59 66 34 54 44 52 62 61 51 42 56 53 43 30 44
80 83 94 127 137 120 128 125 129 134 125 123 119 113 111 109 85 103 87 103 89 91 66 61 76 69 29 64 68 58 47 50 52 52 61 67 59 59 19 57 53 58 60 11 57
87 87 88 87 93 141 144 139 140 135 137 122 119 117 116 116 53 108 103 90 69 68 92 61 37 74 80 77 53 63 53 48 61 47 57 65 71 59 54 15 26 59 36 11 58
79 92 95 94 93 95 102 130 146 149 142 133 128 123 122 109 120 66 117 116 113 39 54 82 52 63 73 95 89 84 70 74 61 61 61 73 72 59 67 20 28 49 35 5 62
76 82 83 91 99 103 107 107 110 126 136 142 140 135 134 127 130 106 66 114 48 72 115 94 56 81 81 82 86 84 77 66 58 51 56 50 41 37 25 49 76 75 10 53 47
73 76 81 80 86 91 111 114 115 102 98 89 135 141 133 142 134 144 77 125 84 114 77 16 76 72 94 74 97 87 63 91 70 67 53 57 60 69 61 71 75 10 56 43 64
70 73 75 75 78 83 92 106 108 104 100 96 102 109 122 140 142 138 144 126 75 80 120 111 89 88 100 83 82 82 77 71 53 53 72 60 59 58 73 69 76 68 42 57 63
71 69 64 77 77 78 93 97 95 106 107 105 108 105 101 103 134 135 138 134 133 128 17 38 68 35 96 104 101 96 81 70 65 61 65 74 70 68 68 61 83 73 61 57 54
71 69 62 69 72 77 77 87 84 88 105 114 109 91 53 102 88 110 131 127 124 119 118 120 88 111 114 65 94 98 88 90 64 92 78 63 53 63 70 73 51 13 26 58 59
72 66 65 73 76 72 70 67 79 83 93 100 117 112 106 103 75 84 103 102 120 120 123 115 116 111 116 102 107 77 94 104 97 89 80 60 62 69 72 71 13 86 68 68 72
72 69 67 75 74 68 15 64 67 76 87 92 99 110 112 93 110 89 97 94 104 125 124 89 121 116 116 113 106 95 91 86 94 97 87 86 69 15 16 50 80 32 32 82 79
74 70 68 72 67 67 65 11 41 64 68 75 92 101 108 117 118 107 96 95 98 104 118 117 74 119 117 104 73 78 103 98 99 66 69 45 43 12 8 59 77 54 64 69 80
71 70 68 73 69 71 76 71 56 64 71 76 72 101 98 30 109 117 109 101 96 91 99 111 128 67 109 96 59 106 100 98 95 83 56 44 50 82 77 60 26 64 77 68 79
70 72 74 72 64 63 61 84 78 70 68 80 80 44 3 89 103 102 105 115 76 97 97 102 110 120 109 103 108 99 94 97 90 83 82 75 54 82 57 87 60 87 87 84 79
77 72 76 45 50 55 51 22 60 77 72 70 70 21 77 36 24 69 20 101 114 102 96 50 99 103 53 111 100 49 93 79 55 60 86 69 48 31 50 79 80 84 81 83 81
Wind_Direction
254 246 251 250 253 250 248 252 249 253 253 253 249 256 258 259 259 259 251 264 262 263 260 262 264 272 270 273 281 284 280 297 296 301 301 303 305 307 312 294 320 311 329 326 318
253 242 242 247 246 250 249 250 248 254 255 253 253 257 255 257 257 256 259 264 264 261 262 259 262 269 274 269 276 278 282 291 294 299 303 302 302 299 311 306 305 311 315 329 322
251 246 241 243 256 254 251 248 252 252 250 251 251 253 255 254 255 256 256 258 260 264 261 262 259 267 261 278 277 283 283 283 290 295 300 299 300 303 306 301 310 308 322 312 322
247 246 234 251 243 244 254 242 245 248 248 247 252 250 252 252 253 254 254 258 261 255 257 260 261 261 265 272 279 278 286 276 289 293 287 297 297 302 302 300 296 305 321 318 319
246 249 247 249 241 241 253 243 253 244 247 250 250 248 252 252 251 255 255 250 257 257 254 261 261 263 267 271 263 273 281 282 279 291 294 293 299 298 295 302 299 302 309 309 318
239 247 248 251 243 245 251 248 246 253 252 242 250 252 249 250 249 253 253 252 251 251 254 257 255 263 266 270 269 260 278 279 287 289 290 286 285 288 291 299 294 303 311 315 323
249 248 248 235 238 251 244 248 243 248 237 245 246 246 251 253 250 251 251 249 255 259 253 254 260 260 263 263 268 270 273 281 279 282 283 286 290 285 300 291 297 299 304 316 316
248 236 248 234 235 241 251 246 238 246 253 248 239 243 255 250 249 250 251 249 253 254 257 258 253 260 257 263 265 269 271 273 276 278 281 283 286 290 290 287 292 295 298 305 324
244 241 238 250 241 241 251 237 243 243 248 246 248 238 243 257 249 248 252 252 250 253 251 258 259 256 260 263 264 263 274 275 274 276 277 279 287 286 291 292 299 301 301 303 313
241 239 238 233 232 235 252 247 245 245 240 245 250 243 246 252 246 254 250 252 251 251 252 254 254 259 261 257 261 251 270 269 268 273 273 274 283 287 286 292 302 297 300 303 306
237 240 238 237 236 235 236 237 241 238 247 241 242 246 243 249 250 245 252 244 243 255 247 251 257 254 256 258 262 267 257 266 265 261 272 272 279 280 282 293 291 298 301 301 305
239 236 239 240 235 236 238 239 238 238 240 246 243 245 245 245 243 254 238 250 243 255 250 254 252 252 256 254 260 265 258 257 266 261 268 273 280 274 284 296 293 271 297 304 306
242 240 239 239 237 234 234 240 239 240 241 246 246 243 245 245 246 248 251 243 248 240 249 246 253 260 257 260 261 263 258 261 268 270 267 274 276 277 282 280 286 292 285 287 315
243 245 242 239 234 241 240 241 241 236 242 238 237 240 242 244 252 249 250 246 250 251 238 238 252 257 246 253 257 253 247 263 265 271 272 276 276 283 254 284 284 290 291 263 300
244 243 240 242 243 236 237 241 239 242 241 242 241 241 242 246 247 245 250 252 246 235 251 243 240 253 256 259 255 257 252 259 263 257 268 264 271 272 275 275 280 280 314 255 304
249 245 244 242 240 242 243 241 241 240 241 241 239 242 241 242 246 247 246 247 248 226 235 250 242 253 248 256 257 252 256 258 259 261 265 264 266 261 267 261 288 280 283 320 297
250 248 249 247 241 241 241 243 243 243 241 240 239 240 239 241 244 246 254 246 229 251 255 245 250 248 253 249 257 255 256 252 255 260 257 266 269 267 274 272 283 284 246 292 301
254 252 251 254 250 250 243 244 242 245 244 243 241 241 241 240 243 243 250 243 249 248 244 241 245 243 249 246 251 255 256 248 261 260 249 268 264 264 276 275 278 249 286 302 291
258 256 256 260 258 257 250 247 243 244 242 242 240 238 238 239 240 241 242 244 243 248 248 249 246 251 249 248 246 250 252 251 250 250 259 257 247 256 271 277 277 276 285 284 291
263 261 261 257 261 258 252 248 245 241 242 241 239 239 237 236 238 237 241 241 244 245 245 250 245 253 244 245 243 246 254 251 254 254 245 255 259 257 268 275 275 276 279 289 298
268 262 268 266 266 259 254 252 247 243 240 239 240 239 233 237 237 237 239 240 240 241 239 244 246 240 245 250 249 248 247 249 249 255 258 253 271 257 262 267 278 299 302 281 287
270 270 268 270 268 265 260 257 247 240 240 241 237 240 240 240 240 239 237 233 238 240 239 237 241 239 243 244 243 247 244 251 250 254 253 250 252 253 259 264 265 268 276 280 283
273 272 270 275 276 265 267 258 251 244 240 238 240 239 237 238 239 239 236 234 233 234 234 233 237 238 241 239 237 245 247 249 248 250 251 255 257 135 181 259 268 300 276 279 280
273 274 278 276 273 267 262 262 252 243 241 238 237 237 238 236 238 238 237 235 234 233 233 233 232 235 236 239 239 235 241 243 245 245 249 251 234 212 256 257 262 265 269 279 280
276 282 280 279 273 265 258 251 245 245 239 239 236 237 237 258 239 235 235 235 235 234 233 233 234 230 234 234 241 238 240 242 244 248 244 250 250 258 253 267 283 264 269 276 274
280 283 280 275 259 256 252 248 245 238 235 236 238 230 84 237 237 238 236 232 235 230 233 234 235 232 232 231 233 237 238 241 245 249 250 250 273 256 275 257 279 264 270 272 274
285 284 280 262 257 257 258 239 256 237 234 230 233 221 231 234 218 232 82 230 228 228 228 225 234 232 245 229 232 238 237 243 247 250 249 243 247 271 281 252 254 259 265 272 277